Regional Weather Roundup
Issued by NWS San Angelo, TX

Home | Current Version | Previous Version | Text Only | Print | Product List | Glossary On
Versions: 1 2 3 4 5 6 7 8 9 10 11 12 13 14 15 16 17 18 19 20 21 22 23 24 25 26 27 28 29 30 31 32 33 34 35 36 37 38 39 40 41 42 43 44 45 46 47 48 49 50
000
ASUS44 KSJT 301011
RWRSJT
WEST CENTRAL TEXAS REGIONAL WEATHER ROUNDUP
NATIONAL WEATHER SERVICE SAN ANGELO TX
500 AM CDT SAT JUL 30 2016

NOTE: "FAIR" INDICATES FEW OR NO CLOUDS BELOW 12,000 FEET WITH NO
SIGNIFICANT WEATHER AND/OR OBSTRUCTIONS TO VISIBILITY.

TXZ049-054-064>066-071>073-076>078-098-099-113-114-127-128-139-140-
154-155-168>170-301100
...LOCATIONS ACROSS WEST CENTRAL TEXAS...

CITY           SKY/WX    TMP DP  RH WIND       PRES   REMARKS
SAN ANGELO     CLEAR     76  67  73 SW6       30.03R
ABILENE        CLEAR     78  63  59 S12       30.02R
DYESS AFB      CLEAR     78  64  63 S10       30.01R
JUNCTION       CLOUDY    77  69  76 SE3       30.02F
SWEETWATER     CLEAR     77  63  61 S14       30.07S
BROWNWOOD      PTCLDY    75  66  73 SE3       30.02S
COLEMAN        MOSUNNY   74  64  71 SW5       30.03S
SONORA         PTCLDY    75  68  78 CALM      30.09S
OZONA          FAIR      72  64  78 S6        30.08F
BRADY          NOT AVBL
$$

TEXAS PANHANDLE/OKLAHOMA PANHANDLE

CITY           SKY/WX    TMP DP  RH WIND       PRES   REMARKS
AMARILLO       CLOUDY    71  57  61 S22G29    30.05F
BORGER         CLOUDY    74  56  53 CALM      30.05F
CANADIAN       MOCLDY    71  66  82 CALM      30.03S
DALHART        CLEAR     65  57  75 W10       30.10F
DUMAS          MOSUNNY   64  57  80 NE7       30.07S
GUYMON         NOT AVBL
HEREFORD       CLOUDY    66  64  91 SE3       30.09F
PAMPA          MOSUNNY   68  60  76 S6        30.08S
PERRYTON       MOCLDY    69  63  81 S8        30.04F
$$

SOUTHERN PANHANDLE/SOUTH PLAINS/ROLLING PLAINS

CITY           SKY/WX    TMP DP  RH WIND       PRES   REMARKS
LUBBOCK        CLOUDY    71  60  68 NE3       30.08F
SNYDER           N/A     73  62  67 S5        30.06R
CHILDRESS      TSTM      73  69  87 N7        30.04R
SEMINOLE       SUNNY     73  63  70 S5        30.10F
$$

PERMIAN BASIN

CITY           SKY/WX    TMP DP  RH WIND       PRES   REMARKS
MIDLAND        CLEAR     76  65  68 S8        30.06S
ODESSA         CLEAR     77  65  66 S8        30.08S
WINK           CLEAR     74  63  68 SE7       30.04S
$$

FAR WEST/SOUTHWEST MOUNTAINS/TRANS PECOS

CITY           SKY/WX    TMP DP  RH WIND       PRES   REMARKS
ALPINE         SUNNY     65  59  82 W6        30.19F
DRYDEN           N/A     74  66  76 NE5       30.01S
EL PASO        CLOUDY    78  61  55 SE9       30.06R
FORT STOCKTON  CLEAR     73  63  70 SE5       30.06S
GUADALUPE PASS CLEAR     68  57  68 E6        30.21S
MARFA          CLEAR     58  57  97 N7        30.18S
PECOS          SUNNY     73  62  68 E7        30.04S
$$

DALLAS/FORT WORTH METROPLEX

CITY           SKY/WX    TMP DP  RH WIND       PRES   REMARKS
DFW AIRPORT    CLEAR     82  71  69 S13       29.96S
FTW MEACHAM    CLEAR     82  69  64 S9        29.97S
DAL-EXECUTIVE  CLEAR     79  71  76 VRB6      29.97S
GRAND PRAIRIE  CLEAR     79  71  74 S9        29.98S
ADDISON        CLEAR     82  74  76 S8        29.99S
MESQUITE       SUNNY     75  74  97 S5        29.97F
LANCASTER      SUNNY     79  73  80 S3        29.98S
$$

NORTH CENTRAL TEXAS

CITY           SKY/WX    TMP DP  RH WIND       PRES   REMARKS
SHRMAN/DENISON SUNNY     79  72  79 S9        29.98S
GAINESVILLE    CLOUDY    76  73  91 CALM      29.99S
BRIDGEPORT     SUNNY     73  71  93 CALM      29.99R
DENTON         CLEAR     77  72  84 S3        29.96F
WAXAHACHIE     SUNNY     76  73  91 S5        30.00R
GRANBURY       SUNNY     80  69  68 CALM      29.99S
$$

WESTERN NORTH TEXAS

CITY           SKY/WX    TMP DP  RH WIND       PRES   REMARKS
WICHITA FALLS  CLOUDY    74  70  87 S6        29.95F
VERNON         CLOUDY    77  65  65 CALM      29.97S
BRECKENRIDGE   SUNNY     79  65  60 S8        29.99R
COMANCHE       CLEAR     78  69  72 SW9       30.02R
$$

CENTRAL AND SOUTH CENTRAL TEXAS

CITY           SKY/WX    TMP DP  RH WIND       PRES   REMARKS
AUSTIN/BERGSTM PTCLDY    75  74  96 CALM      30.01R
WACO           PTCLDY    80  72  76 S10       29.99S
HILLSBORO      CLOUDY    79  71  76 S8        30.00R
TEMPLE         CLEAR     77  73  87 S9        30.01S
KILLEEN-GRAY   CLOUDY    76  71  85 S7        30.01S
FORT HOOD      CLOUDY    77  71  84 S7        29.99S
GEORGETOWN     CLEAR     79  72  78 S7        30.01S
LAGO VISTA     PTSUNNY   77  73  87 S7        30.04R
SAN MARCOS     PTCLDY    73  72  94 CALM      30.04R
NEW BRAUNFELS  CLEAR     75  73  93 SE6       30.00S
RANDOLPH AFB   MOCLDY    74  74 100 SE6       30.01S
SAN ANTONIO    MOCLDY    77  74  90 S9        30.02S
STINSON        CLEAR     77  74  90 E5        29.99S
PLEASANTON     NOT AVBL
LA GRANGE        N/A     76  76  98 CALM      29.99S FOG
GIDDINGS       SUNNY     75  74  94 CALM      30.05S
$$

EAST TEXAS

CITY           SKY/WX    TMP DP  RH WIND       PRES   REMARKS
PARIS          CLEAR     72  63  73 CALM      29.99R
CLARKSVILLE    NOT AVBL
TYLER          CLOUDY    80  73  79 SW5       29.99S
LONGVIEW       CLOUDY    78  73  84 SW6       29.98S
PALESTINE      CLOUDY    78  75  90 S3        30.01S
NACOGDOCHES    CLOUDY   N/A N/A N/A SW3       29.99S
$$

TEXAS HILL COUNTRY AND EDWARDS PLATEAU

CITY           SKY/WX    TMP DP  RH WIND       PRES   REMARKS
LLANO          CLOUDY    79  75  89 CALM      30.05S
HORSESHOE BAY  FAIR      75  71  86 CALM      30.03R
KERRVILLE      PTCLDY    74  72  93 SE5       30.04S
FREDERICKSBRG  CLEAR     73  67  82 CALM      30.04S
ROCKSPRINGS    CLOUDY    73  70  88 S9        30.08S
HONDO          CLEAR     75  73  93 SE3       30.03S
UVALDE         SUNNY     72  68  88 SE3       30.02F
DEL RIO        CLOUDY    76  69  79 SE10      29.99R
$$

SOUTHEAST TEXAS

CITY           SKY/WX    TMP DP  RH WIND       PRES   REMARKS
COLLEGE STN    CLEAR     77  75  93 S5        30.01S
CALDWELL       SUNNY     75  75 100 CALM      30.04S
CROCKETT       SUNNY     75  75 100 SW5       30.04S
BRENHAM        CLEAR     77  76  98 CALM      30.02F
HUNTSVILLE     CLEAR     76  74  93 S3        30.02S
CONROE         CLEAR     74  73  97 CALM      30.02S
HOUSTON BUSH   PTCLDY    77  75  93 CALM      30.01S
HOUSTON HOBBY  PTCLDY    78  76  93 CALM      30.00S
PERLAND        CLEAR     79  75  87 CALM      30.02S
WHARTON        NOT AVBL
$$

THE UPPER TEXAS COAST

CITY           SKY/WX    TMP DP  RH WIND       PRES   REMARKS
ORANGE         SUNNY     75  73  93 CALM      30.02S FOG
PORT ARTHUR    FOG       76  75  97 SW5       29.99F VSB 1/2
GALVESTON      CLEAR     83  77  82 SW5       30.01S
ANGLETON       PTCLDY    78  75  90 N3        30.01R
BAY CITY       MOSUNNY   76  76  99 CALM      30.00S
$$

TEXAS COASTAL BEND, RIO GRANDE PLAINS DEEP SOUTH TEXAS

CITY           SKY/WX    TMP DP  RH WIND       PRES   REMARKS
VICTORIA       PTCLDY    75  74  96 NE5       30.00F
BEEVILLE       FAIR      68  68 100 E5        29.98F FOG
ROCKPORT       CLEAR     82  76  81 SW3       29.98S
PORT ARANSAS   SUNNY     82  78  89 S6        29.98S
PORT LAVACA    MOSUNNY   76  76  98 CALM      30.00S
CORPUS CHRISTI PTCLDY    79  76  90 SE5       29.97F
KINGSVILLE NAS CLEAR     75  75 100 SE5       29.97S
COTULLA        CLEAR     75  69  81 NE5       29.99R
LAREDO         CLEAR     75  73  93 SE8       29.97S
BROWNSVILLE    CLEAR     79  76  90 CALM      29.96F
PORT ISABEL    CLEAR     80  76  87 CALM      29.96S
HEBBRONVILLE   SUNNY     75  73  93 S5        29.99S
MCALLEN        CLEAR     79  74  84 SE5       29.96S
WESLACO        CLEAR     73  36  26 SE5       29.94F
FALFURRIAS     SUNNY     76  73  92 CALM      29.96S
EDINBURG       SUNNY     78  74  89 CALM      29.96S
$$




USA.gov is the U.S. government's official web portal to all federal, state and local government web resources and services.